Wind_Speed
43 42 41 37 33 29 26 24 23 22 23 23 25 26 27 28 27 27 28 29 31 30 30 30 30 29 29 29 29 29 29 29 29 29 29 29 28 27 26 26 26 26 26 26 26 25 25 25 26 29 31 33 34 36 38 39 40 41 42 42 41 41 41 41 42 42 42 42 42 42 43 42 42 40 39 38 37 36 35 35 35 36 37 37 39
42 42 41 38 34 30 27 26 26 26 25 25 24 25 25 25 24 25 26 28 29 29 29 30 29 29 29 29 29 28 28 28 28 28 28 28 28 28 27 27 27 27 28 28 27 27 28 28 30 32 34 36 38 39 40 41 41 41 42 42 42 42 41 41 42 42 43 43 43 43 42 41 41 40 40 40 39 38 37 36 36 37 39 40 41
38 37 37 35 33 31 30 29 27 27 26 26 26 26 27 26 25 26 27 27 27 28 29 29 28 28 28 28 28 28 28 28 28 28 28 29 30 30 29 29 28 29 29 30 30 30 31 31 33 35 37 39 41 43 43 42 41 41 42 42 42 42 42 42 43 44 44 44 43 42 41 39 40 40 41 42 42 41 39 38 37 38 40 42 43
32 32 32 31 31 32 33 32 29 27 26 25 26 29 30 30 29 29 29 28 27 28 29 29 29 29 29 29 30 30 30 30 29 29 29 30 31 32 31 31 30 31 31 32 33 33 34 36 37 39 41 43 44 45 43 41 41 41 41 42 42 42 43 44 44 44 43 42 41 41 40 39 40 41 42 43 43 42 41 40 40 40 41 42 43
29 31 32 31 31 32 33 34 33 32 31 30 30 32 34 34 33 33 32 30 30 30 31 31 31 31 31 31 31 32 32 32 32 32 32 33 34 34 34 34 34 34 35 35 37 38 40 41 42 45 46 46 46 45 42 40 40 40 41 42 42 43 44 45 44 42 41 40 41 41 41 41 41 42 43 44 44 43 42 41 42 43 43 42 42
31 32 33 33 33 32 32 34 35 36 36 37 35 34 35 35 34 34 33 32 31 32 32 33 33 33 33 33 33 33 34 34 35 35 34 34 35 36 37 38 40 40 40 41 42 43 43 45 47 48 48 48 48 45 42 39 39 39 40 41 42 43 44 43 42 40 40 41 42 42 42 42 42 43 44 44 44 44 43 43 44 45 46 45 45
35 34 33 34 34 32 31 32 34 36 37 38 36 34 35 36 35 35 35 35 35 36 36 35 35 35 35 35 35 35 35 36 36 36 36 36 37 39 41 43 44 45 46 46 45 45 46 48 50 50 50 50 48 45 42 39 38 38 39 40 40 41 42 42 41 42 42 43 42 43 43 43 43 43 44 44 44 44 44 45 46 48 49 50 50
41 38 34 31 31 32 31 29 30 33 34 34 33 34 36 37 37 37 38 39 39 39 38 37 37 38 38 37 37 37 38 39 39 38 39 40 41 43 44 45 46 48 48 48 48 48 50 52 52 52 52 50 48 46 42 39 38 38 38 38 39 40 41 41 42 43 43 42 42 42 43 43 43 43 44 44 45 46 47 49 51 53 54 55 56
43 42 37 31 30 33 33 31 30 33 35 36 36 37 39 39 39 40 41 42 43 42 39 39 40 41 41 40 41 41 41 40 40 40 41 42 43 44 45 46 47 48 48 48 50 52 53 53 53 52 51 50 48 46 42 40 38 38 39 39 41 41 42 42 43 43 43 43 43 43 44 45 46 46 47 48 50 51 53 55 56 58 59 59 60
38 39 38 36 35 37 37 36 35 36 37 38 39 40 40 40 41 42 42 43 44 44 42 41 42 43 43 43 43 42 40 40 41 43 45 45 46 46 47 47 48 49 50 51 52 53 54 54 53 51 50 50 49 46 43 41 41 41 42 43 43 44 44 45 45 45 45 45 46 47 48 49 50 51 52 54 55 56 58 60 61 61 62 63 65
38 36 37 38 39 40 40 39 39 40 39 38 39 40 41 42 43 44 44 44 45 45 44 43 44 45 45 44 43 42 43 44 46 47 48 48 49 49 49 49 50 51 53 53 54 55 55 54 52 51 50 50 48 46 45 45 45 45 46 46 46 47 47 47 47 47 48 48 49 50 52 53 54 56 57 59 60 62 62 62 62 63 64 66 68
42 39 39 39 39 38 38 39 39 40 41 40 40 41 43 43 44 44 44 45 45 46 46 46 46 46 45 44 44 45 47 48 49 50 50 50 51 51 52 52 53 54 55 55 56 56 55 54 53 52 51 50 49 49 50 50 50 49 50 50 49 49 49 49 49 50 50 51 53 54 56 57 59 61 62 63 64 64 64 64 65 66 68 70 71
50 45 43 44 43 42 42 42 42 42 42 41 41 42 44 45 45 46 46 46 47 48 48 48 47 46 46 45 45 46 48 50 52 53 52 51 52 53 55 56 57 57 58 59 58 57 56 55 54 54 54 54 54 55 55 54 54 53 53 53 53 53 53 53 53 53 54 56 57 59 61 63 64 65 66 67 66 66 67 68 70 72 74 74 74
55 52 49 49 49 49 49 48 48 48 47 45 44 44 46 47 46 46 47 47 48 48 48 48 47 46 47 48 49 51 53 55 55 55 54 54 56 58 59 60 61 62 63 63 61 60 58 58 58 58 58 58 58 58 58 57 57 57 57 57 58 58 58 58 59 60 61 62 63 65 66 66 67 67 68 69 70 70 71 72 73 74 75 75 76
54 54 53 52 53 54 55 54 54 54 52 51 50 49 48 48 47 47 47 47 48 48 48 49 49 51 52 54 56 58 58 57 57 58 59 61 62 63 64 65 67 67 67 66 64 63 63 63 63 62 61 61 61 60 60 60 61 62 62 63 63 64 64 64 65 65 66 67 68 69 70 70 70 70 71 72 74 74 74 75 74 74 75 75 75
55 55 55 55 56 57 58 59 59 59 58 58 57 57 55 55 55 54 53 52 52 53 54 55 57 58 60 61 61 61 61 61 62 64 66 67 67 67 68 68 68 68 67 65 64 65 65 66 65 64 64 64 64 64 65 65 66 67 67 67 68 68 68 68 68 68 69 70 71 71 72 72 72 73 74 75 76 76 76 76 75 75 74 74 73
58 58 58 58 58 59 60 62 62 63 64 64 64 64 63 62 63 62 61 61 61 61 62 62 63 64 65 65 65 65 66 67 69 69 70 70 70 70 69 68 67 67 66 65 65 67 68 68 68 68 67 67 68 69 70 70 71 71 70 70 70 70 70 70 71 71 71 72 72 72 73 73 74 75 75 76 77 77 77 76 76 75 73 72 71
62 61 62 62 62 62 63 64 65 66 67 68 69 69 69 69 68 68 68 68 68 69 69 68 68 68 67 67 68 69 70 71 72 72 71 71 70 70 70 69 69 69 70 69 69 69 70 70 71 71 71 71 71 72 73 74 74 73 73 72 72 72 72 72 73 73 72 72 71 72 72 74 75 75 76 77 77 77 76 76 75 75 74 73 72
65 64 64 64 65 65 66 66 67 68 68 69 70 70 71 72 72 72 71 71 72 72 72 71 71 71 71 70 71 72 74 74 74 73 73 73 73 72 72 72 72 72 72 72 71 71 71 72 73 73 74 74 74 75 76 76 76 75 74 74 75 75 75 75 74 72 72 72 73 74 75 75 76 76 77 76 76 76 77 77 77 77 77 76 75
68 67 67 66 66 66 67 68 69 70 70 71 72 72 72 72 72 73 73 74 74 74 74 73 73 73 73 72 73 75 76 77 76 76 75 75 75 75 74 74 74 74 74 74 74 74 75 75 76 77 78 78 77 77 77 76 76 76 76 76 77 77 76 75 74 74 75 76 77 77 78 78 78 78 78 78 79 79 80 81 82 82 82 81 81
72 72 71 70 69 68 69 69 70 70 71 71 72 72 72 72 72 72 73 73 74 75 74 74 74 74 73 73 74 77 78 78 78 78 78 77 77 77 76 76 76 76 77 78 78 79 79 80 80 81 81 80 79 78 78 77 77 77 77 77 76 76 75 75 76 77 78 79 79 79 79 79 80 81 82 83 84 84 85 85 86 86 86 86 85
76 76 75 74 73 73 72 72 72 72 72 71 71 71 71 71 71 72 73 73 74 75 75 75 76 76 77 77 78 79 80 80 81 81 81 81 80 80 80 81 81 82 82 83 84 85 85 85 85 84 83 83 82 81 80 79 79 78 78 77 77 76 77 78 79 80 80 80 80 80 80 81 83 85 87 88 88 88 88 88 89 89 89 89 88
79 79 79 79 78 77 76 76 75 75 74 74 74 73 73 73 73 74 74 75 76 77 77 78 78 78 79 79 80 81 82 83 83 83 83 83 84 84 84 84 85 86 86 87 87 87 87 86 85 85 84 83 83 82 81 81 80 80 81 80 79 79 79 81 81 82 81 81 82 82 84 85 88 89 90 91 90 90 90 91 92 92 92 91 89
79 80 80 81 81 80 80 79 79 78 78 78 78 77 77 77 77 78 79 80 80 80 81 81 81 81 81 81 82 82 83 84 85 85 86 86 86 86 86 87 87 87 86 86 86 86 85 85 85 85 85 84 84 83 83 82 82 83 82 81 81 83 84 85 85 85 84 85 86 88 89 91 92 93 93 93 93 93 93 94 94 94 94 91 88
78 80 80 81 82 82 82 82 82 81 81 80 80 80 81 81 82 83 84 84 84 85 85 85 85 85 85 85 84 84 85 85 86 86 86 86 87 87 87 87 87 86 86 85 85 85 86 86 87 87 86 85 84 84 84 83 84 85 85 85 89 92 93 92 90 89 90 91 92 94 95 96 97 97 97 95 95 94 94 95 96 95 92 88 84
81 81 82 82 83 83 83 83 83 84 83 83 83 83 83 84 84 84 85 85 86 86 86 86 87 87 88 88 87 87 87 88 88 88 88 88 88 88 87 87 86 86 86 86 86 86 87 88 88 87 86 85 86 87 86 86 87 88 90 93 96 99 100 99 97 97 98 99 99 100 100 101 101 101 99 97 95 95 95 95 95 91 86 82 80
83 83 83 84 84 85 85 85 85 86 86 85 85 85 84 84 84 84 85 85 86 87 87 88 88 89 89 90 90 90 90 90 90 89 89 89 89 89 88 88 88 88 87 88 88 88 89 90 90 89 89 90 93 93 91 90 91 92 94 97 100 103 104 104 103 103 104 105 105 105 104 104 105 103 101 97 95 94 94 93 91 86 81 79 78
82 83 84 84 85 85 86 86 86 85 85 85 84 84 84 84 84 84 85 85 86 87 87 88 89 89 90 90 91 91 92 91 90 90 90 90 90 90 90 90 90 90 90 90 90 91 92 93 93 93 93 95 98 99 97 96 96 96 97 99 101 104 107 108 107 107 108 108 108 108 107 107 106 104 101 98 96 95 94 92 88 84 81 79 75
80 81 82 84 85 85 85 85 85 85 85 85 85 85 85 85 85 85 85 86 87 88 89 89 90 90 90 91 91 91 91 91 91 91 91 92 92 93 93 94 94 94 94 93 93 94 94 95 95 96 96 97 99 101 101 101 101 100 101 102 103 105 108 110 110 110 110 110 109 108 107 107 105 104 102 101 99 97 94 91 87 84 81 77 72
78 78 80 81 83 84 84 85 84 84 85 85 86 86 87 87 87 87 88 89 89 90 90 90 90 91 91 92 92 92 92 92 92 92 93 94 95 95 96 97 97 97 98 98 97 97 97 98 98 99 99 100 101 103 104 105 105 105 105 106 106 107 108 109 110 110 111 111 110 109 107 105 104 103 103 102 100 96 93 90 87 84 80 76 72
80 80 80 81 82 83 84 84 85 85 86 87 87 88 89 89 90 90 91 91 91 91 91 91 92 92 93 93 94 94 94 95 96 96 97 97 98 99 99 100 100 101 101 102 101 101 102 102 102 102 103 103 104 105 106 106 107 106 106 107 107 108 109 110 111 112 112 112 110 109 108 106 104 102 101 100 98 95 92 88 85 81 77 74 71
84 84 84 84 84 85 86 87 88 89 89 90 90 91 91 92 93 93 93 93 94 94 94 95 95 96 96 97 98 98 98 99 100 100 101 101 102 103 103 104 104 104 105 105 105 105 105 105 105 104 105 105 106 106 106 106 106 106 107 107 108 110 111 113 114 115 115 114 111 109 108 106 103 101 99 97 95 93 90 87 83 79 76 73 70
87 87 87 87 87 87 88 89 90 91 91 92 93 93 94 95 96 96 97 97 97 97 97 98 98 99 99 100 101 101 102 102 103 103 103 104 104 105 106 106 107 107 107 107 107 107 106 106 106 105 106 106 107 108 108 108 107 107 108 108 109 110 112 113 115 115 115 113 111 108 105 103 100 98 96 94 92 90 88 86 83 79 75 72 69
90 90 90 91 91 91 92 92 93 93 94 95 96 97 97 98 98 98 99 99 99 99 100 100 101 101 102 102 103 103 104 105 106 106 106 106 107 107 108 108 108 108 109 109 109 109 108 107 107 106 106 106 107 108 108 108 107 107 107 107 107 107 108 108 108 109 109 109 107 104 101 99 97 96 94 91 88 87 85 84 82 78 74 71 68
91 92 93 93 94 94 95 95 96 96 97 98 98 99 99 100 100 100 101 101 101 101 102 102 102 103 104 104 105 105 106 107 108 108 108 108 108 108 108 109 109 109 109 110 110 109 108 108 107 106 105 105 105 105 105 104 102 102 101 100 100 100 99 99 99 100 100 100 98 97 96 95 94 93 91 89 86 84 82 81 80 77 73 70 66
92 92 93 94 95 96 96 97 98 99 99 100 100 101 101 101 102 102 103 103 103 103 103 104 104 104 105 105 106 107 108 109 109 109 109 109 109 109 109 109 109 108 107 107 107 107 106 105 103 102 100 99 98 98 96 95 94 93 93 93 93 93 92 92 92 92 92 91 91 90 90 90 90 90 88 86 83 81 79 78 76 73 70 67 64
90 91 92 93 94 95 96 97 98 99 100 100 101 101 102 102 103 103 104 104 104 104 105 105 105 105 105 106 106 107 108 109 110 110 110 110 110 110 110 109 108 107 105 103 101 100 99 97 96 93 91 90 89 88 87 87 86 86 86 87 88 87 87 86 86 85 85 85 85 83 82 82 83 85 84 81 79 77 75 73 70 68 65 63 61
89 90 91 92 93 94 95 96 97 98 99 100 100 101 101 102 102 103 103 104 104 105 105 106 106 106 106 106 106 107 107 107 107 107 108 107 107 106 105 104 103 101 99 96 94 91 90 88 86 84 83 82 81 79 78 78 78 79 80 81 80 80 80 80 79 78 78 78 77 76 74 74 76 77 78 76 74 71 69 66 64 62 61 59 58
87 88 89 90 91 92 93 94 95 96 96 97 97 98 98 99 99 100 100 100 100 101 101 101 102 102 102 102 102 101 101 100 100 99 99 99 98 96 95 94 92 91 89 88 85 83 81 80 78 76 75 74 72 71 71 72 72 72 73 73 72 71 71 72 74 74 72 69 69 70 70 70 70 71 71 70 68 65 62 60 59 58 58 57 56
84 85 86 86 87 88 88 89 90 90 90 91 91 92 92 92 92 92 92 92 92 93 93 93 93 93 93 93 93 92 91 90 90 89 88 88 87 86 85 84 83 82 80 78 76 74 73 72 70 69 67 67 66 65 65 66 67 67 68 68 67 65 64 66 68 69 66 64 64 66 67 67 67 66 64 62 60 58 57 57 57 56 56 55 54
82 82 82 83 83 83 84 84 84 84 84 85 85 84 84 84 84 84 84 84 84 84 84 84 84 84 84 84 84 84 83 83 82 81 80 79 78 77 76 74 73 72 70 69 68 67 65 65 64 63 62 62 61 61 61 62 62 63 63 63 63 62 62 62 63 62 61 60 61 63 63 63 63 61 58 56 55 55 55 55 55 55 54 53 51
78 78 79 79 79 80 80 79 79 79 79 79 79 79 79 79 78 78 78 79 79 79 79 78 79 79 78 78 78 78 77 76 75 74 73 71 69 68 67 66 64 63 62 62 62 62 61 60 59 58 58 57 57 57 57 57 57 58 58 59 59 60 60 59 58 57 56 56 56 58 58 58 56 54 52 51 52 53 54 54 54 53 52 49 47
75 75 75 75 76 76 75 75 74 75 75 75 75 74 74 74 74 73 74 74 74 73 73 73 73 73 72 72 71 70 70 69 68 66 65 64 62 61 61 60 58 57 57 57 57 58 57 56 55 54 54 54 53 53 53 52 52 53 54 55 55 56 56 56 55 53 52 52 52 53 53 51 50 48 47 48 51 52 52 52 51 49 46 43 41
70 69 70 70 70 70 69 69 69 69 69 69 69 69 68 68 68 68 68 68 67 67 67 67 66 66 65 65 64 64 63 62 61 60 59 59 57 56 56 56 54 53 53 53 53 54 53 52 52 51 51 50 49 49 48 47 47 49 50 51 52 52 52 52 51 50 49 49 49 49 47 46 46 46 46 47 49 51 51 49 47 44 41 39 38
63 63 63 64 64 63 63 63 63 63 63 63 63 62 62 61 61 61 61 61 61 61 61 61 60 60 60 59 59 59 58 57 57 56 55 54 53 52 52 52 51 50 49 49 49 49 49 48 48 48 47 47 46 45 43 43 43 45 46 47 48 49 48 48 47 46 45 45 45 45 44 44 45 45 45 45 47 47 47 46 44 41 39 37 36
57 58 59 59 58 57 57 58 58 57 57 57 57 56 56 56 55 56 56 56 56 56 56 56 56 56 55 55 55 55 54 53 53 52 51 51 50 49 49 48 47 46 45 44 44 44 44 44 44 43 43 43 42 41 40 40 40 41 42 43 44 44 44 43 43 42 42 42 42 42 42 42 42 42 42 43 43 43 43 42 41 39 37 34 33
52 53 54 54 53 53 53 53 53 53 53 53 52 52 52 52 51 52 52 52 52 53 53 53 53 52 52 52 51 51 51 50 49 49 48 47 46 46 45 45 44 42 41 40 40 40 40 40 39 39 39 38 38 38 37 37 37 38 38 39 39 39 39 39 39 38 38 39 39 39 40 40 40 39 39 39 39 39 39 38 37 36 34 32 31
49 50 50 50 50 50 50 50 50 50 50 50 49 49 49 49 49 49 49 49 49 50 50 50 50 50 49 49 49 48 48 47 46 46 45 44 43 42 42 42 41 40 38 37 37 36 36 36 36 35 35 35 35 34 34 34 35 36 36 36 35 35 35 35 36 36 36 36 36 36 37 37 37 37 36 36 36 35 35 34 34 33 32 30 30
47 47 48 48 48 48 48 48 48 48 48 48 47 47 47 47 47 47 47 47 47 47 47 47 47 47 47 47 46 46 45 45 44 44 43 41 40 39 38 38 38 38 37 36 35 33 33 32 32 32 32 32 32 32 32 32 32 33 33 33 33 32 32 32 32 33 33 34 34 34 34 34 34 34 34 33 33 32 32 31 31 30 30 29 29
45 46 46 46 46 46 47 47 46 46 46 46 46 46 46 46 46 46 45 45 45 45 44 44 44 44 44 44 44 44 43 43 42 42 41 39 38 36 35 35 35 36 35 34 33 32 31 30 30 30 30 30 30 30 30 30 30 30 30 30 30 30 29 29 29 29 30 31 31 32 32 32 32 32 31 31 30 30 29 29 29 29 28 28 28
44 44 44 44 45 45 45 45 45 44 44 44 44 44 45 44 44 44 44 43 43 43 42 42 42 41 41 41 41 41 41 41 40 39 38 38 37 35 34 33 33 33 33 33 32 32 30 29 29 28 28 28 29 29 29 29 29 29 28 28 28 28 27 27 27 27 28 28 29 30 30 30 29 29 29 28 28 28 28 28 28 28 27 27 26
Wind_Direction
240 243 249 256 262 264 264 260 260 264 267 267 268 269 267 265 263 262 262 262 262 262 263 262 261 260 258 257 255 252 251 251 252 253 253 253 254 253 254 255 258 261 263 265 267 268 270 272 277 284 290 292 295 298 299 296 291 286 284 281 280 279 278 277 277 277 277 277 278 280 279 278 278 276 274 274 275 274 275 275 272 269 267 266 264
241 243 245 249 253 256 258 259 262 266 268 270 272 274 272 269 267 265 263 262 263 263 262 261 260 259 258 257 256 254 252 251 251 252 253 253 253 252 253 255 259 263 265 266 266 267 269 272 278 285 291 294 296 299 298 296 290 285 282 279 278 277 276 277 277 277 278 279 279 279 278 276 275 274 271 271 270 269 271 272 270 267 266 265 265
242 244 244 243 245 248 252 258 264 268 270 274 275 274 271 269 267 264 262 262 263 263 261 260 259 259 258 258 257 255 254 254 253 253 253 253 253 253 254 257 261 264 264 263 262 262 265 271 280 288 293 295 297 298 298 294 289 284 280 278 276 275 275 276 276 277 279 280 279 279 276 274 272 271 270 270 269 268 268 270 271 272 271 269 268
241 243 242 241 242 246 249 254 259 263 267 269 269 268 267 265 263 261 261 261 262 262 262 262 260 259 258 258 258 258 258 258 257 257 257 257 257 258 259 262 266 268 268 265 262 263 269 275 282 291 295 296 298 298 297 293 288 283 280 277 276 276 275 276 276 278 279 279 278 277 274 272 271 271 270 270 270 270 270 270 272 276 278 276 273
239 240 241 242 244 247 249 251 255 259 261 263 265 265 264 262 261 260 260 260 260 261 262 262 262 261 260 260 261 261 261 261 262 263 265 265 264 263 263 266 271 274 275 272 270 271 275 279 284 291 295 297 298 299 296 292 288 283 279 277 277 276 276 277 278 278 277 277 276 275 273 271 271 272 272 272 273 274 275 274 274 278 282 282 280
239 239 240 241 244 247 250 252 255 258 260 262 265 265 263 262 262 263 262 262 260 260 260 261 262 263 263 264 265 266 266 267 269 271 272 271 268 266 268 271 275 277 279 279 278 278 279 282 287 292 295 297 299 299 296 292 288 284 280 278 277 276 276 276 276 275 275 276 276 275 274 274 274 275 275 275 276 277 278 277 277 280 284 286 286
246 242 239 240 243 246 250 253 259 261 261 261 262 261 261 263 265 266 266 265 262 261 262 265 267 268 269 270 271 272 273 274 275 275 275 275 274 273 275 276 278 279 281 281 281 280 281 285 289 292 294 297 299 298 296 293 289 285 281 278 277 276 276 274 274 275 278 279 278 277 278 278 278 279 279 279 279 280 281 282 283 286 289 291 291
247 245 242 241 242 244 245 247 252 255 255 254 255 255 258 262 265 265 264 263 263 265 268 270 272 273 274 274 274 275 276 276 276 276 276 277 277 277 278 278 278 279 280 280 280 281 284 287 290 292 295 297 298 298 296 292 290 288 285 282 280 279 278 277 277 280 281 281 281 282 282 282 283 283 283 283 283 284 286 288 290 291 292 294 295
243 244 243 240 235 237 241 241 242 246 249 249 250 251 254 259 262 263 263 265 267 269 270 270 271 273 273 273 274 275 275 274 273 274 275 276 277 277 278 278 279 279 279 280 281 283 285 287 290 293 295 297 298 297 294 291 291 290 289 287 286 285 284 283 283 284 285 285 286 286 286 285 286 286 287 287 288 288 289 291 292 292 293 295 297
240 242 242 239 230 230 235 238 239 243 247 247 248 249 252 255 259 262 265 268 271 272 273 272 273 274 275 275 276 275 272 270 272 274 276 277 278 279 279 280 281 281 281 282 283 284 286 289 292 294 295 297 297 296 292 290 290 291 292 292 291 291 291 291 291 291 291 290 289 289 288 287 287 287 288 288 289 290 291 292 292 293 295 297 299
238 239 240 238 232 229 235 241 243 245 246 248 250 252 253 256 258 262 265 267 270 273 274 275 276 278 278 278 276 275 274 274 276 278 279 280 282 283 283 284 283 283 283 284 285 287 289 291 293 294 295 296 295 294 292 291 291 292 294 295 295 295 295 295 294 293 292 291 289 289 288 288 288 289 289 290 291 292 292 292 292 293 294 296 297
237 237 235 233 230 230 236 241 244 245 247 251 255 257 258 258 259 262 265 267 269 272 273 275 277 278 277 276 275 275 276 277 279 281 282 283 284 284 284 285 285 285 285 286 288 290 291 292 293 294 295 294 293 292 292 293 293 294 296 296 296 295 295 294 293 291 290 289 288 288 288 288 289 290 290 291 292 292 292 292 292 292 292 293 294
238 237 234 231 229 231 235 238 241 244 248 252 256 257 258 258 260 263 266 268 270 271 273 275 275 274 273 272 272 272 273 276 279 281 281 281 280 282 284 285 286 287 288 289 291 292 292 292 293 293 294 293 293 294 295 295 296 296 296 296 295 295 294 293 292 291 289 288 287 287 287 289 290 291 291 292 292 292 291 291 291 292 293 293 294
240 239 237 233 232 234 236 238 241 245 249 252 252 252 253 255 258 261 264 267 269 270 271 272 270 268 266 266 268 271 274 277 278 277 277 278 279 282 285 286 287 288 289 291 292 292 291 291 292 293 294 294 294 295 295 296 296 296 295 295 294 293 292 291 290 289 289 288 287 287 288 289 290 290 290 290 290 290 290 291 291 292 292 293 293
241 242 241 239 237 237 240 241 243 246 249 251 252 251 252 253 255 257 260 262 264 265 266 265 265 264 264 266 270 274 276 276 275 275 277 280 282 285 287 288 290 291 291 292 292 291 291 292 293 293 293 293 293 293 293 294 294 294 294 293 292 292 291 290 290 289 288 288 287 288 288 288 288 288 287 288 288 289 290 290 290 290 290 291 291
239 241 243 243 241 241 242 245 246 248 251 253 255 256 256 257 258 259 260 261 262 262 263 263 265 266 268 270 272 274 275 275 275 277 280 282 285 287 288 289 291 291 291 291 291 291 291 291 292 292 292 291 291 292 292 293 293 294 293 293 292 291 291 290 290 289 289 288 287 287 287 287 287 286 287 287 288 288 288 288 288 288 288 288 289
241 241 242 244 244 244 244 246 248 250 252 254 256 258 259 261 263 264 265 265 265 265 266 267 268 269 271 272 274 274 275 276 277 279 281 284 285 286 287 288 288 288 288 288 288 288 289 290 291 291 291 292 292 292 292 293 293 292 292 291 290 289 289 289 289 289 289 288 287 287 287 287 287 287 287 287 287 287 287 287 287 287 287 288 289
245 245 245 245 246 246 247 247 249 250 252 254 256 258 260 262 264 266 267 268 268 269 269 270 271 272 273 274 275 276 276 277 278 280 282 283 284 284 285 285 285 285 286 286 287 287 288 289 290 290 291 291 291 291 291 291 291 290 289 288 287 287 287 287 287 288 288 287 287 286 286 286 286 286 285 285 286 286 287 288 288 288 289 289 290
247 248 248 248 248 248 249 250 251 252 254 256 258 260 261 263 265 266 268 269 270 271 271 272 273 274 275 276 277 277 277 277 279 280 281 282 282 283 283 284 284 284 285 286 286 286 286 286 287 287 288 288 288 288 289 289 289 288 287 287 286 286 286 286 286 286 286 286 285 285 284 284 284 285 286 287 288 290 291 291 292 292 292 292 292
249 249 250 251 250 250 251 251 252 253 254 256 258 260 262 264 265 267 268 269 270 271 272 273 274 274 275 276 276 276 277 279 280 280 281 281 282 282 282 282 283 283 283 284 284 284 284 285 285 286 286 286 287 287 287 287 287 286 286 285 285 285 285 285 285 284 284 284 285 285 285 286 287 289 290 292 293 294 294 294 294 294 294 293 293
251 252 252 253 253 253 253 253 254 254 255 256 257 259 261 263 265 266 267 269 270 271 272 272 273 274 274 274 275 275 277 278 279 279 279 280 280 280 280 280 280 281 281 281 282 282 282 283 283 284 284 285 285 285 285 285 285 285 285 285 285 285 284 284 283 283 284 285 286 287 288 290 292 293 294 295 295 295 294 294 294 293 293 293 292
253 253 254 254 255 255 256 256 256 257 258 259 259 260 261 262 264 265 266 267 268 269 270 271 271 272 272 273 273 274 275 276 277 277 278 278 278 278 278 278 279 279 279 280 281 281 281 282 282 282 282 282 283 283 284 284 284 284 284 285 284 284 283 283 284 284 285 286 288 290 291 293 294 295 295 294 294 293 293 293 292 292 292 291 291
255 255 255 255 256 256 257 258 258 259 260 260 261 261 262 262 263 265 266 267 267 268 269 269 270 270 271 271 272 273 273 274 275 275 276 276 277 277 277 278 278 279 279 280 281 281 281 282 282 282 282 282 282 283 283 283 283 283 283 284 285 285 285 285 285 286 288 289 291 292 294 294 294 294 293 293 292 292 292 291 291 290 290 290 290
256 256 257 257 257 257 258 259 259 260 261 261 261 262 262 263 263 264 265 266 267 267 268 268 268 269 269 270 271 272 273 273 274 274 275 275 276 276 277 277 278 278 279 279 280 281 281 282 282 281 281 281 282 283 284 285 286 286 286 287 289 289 289 289 289 290 291 292 293 294 294 293 293 292 292 291 291 291 291 290 290 289 289 289 290
256 257 257 258 259 259 259 260 261 262 262 262 263 263 264 265 266 267 268 268 269 270 270 270 270 270 271 271 272 273 273 274 275 275 276 276 276 276 277 277 277 278 278 279 280 281 281 282 282 281 282 282 284 285 287 288 289 290 291 293 293 293 292 292 293 293 293 294 294 293 292 292 291 291 291 291 291 291 290 290 289 288 288 289 290
257 258 258 259 259 260 261 261 262 263 264 264 265 266 267 267 268 269 270 271 271 272 272 272 273 273 273 273 273 273 274 274 275 275 275 275 275 275 276 276 277 277 278 279 280 281 282 283 283 283 285 287 288 288 289 290 291 292 293 293 292 292 292 293 293 294 293 293 293 292 291 291 291 291 291 290 290 290 290 289 288 288 289 290 291
257 258 259 260 260 261 262 262 263 263 264 265 266 266 267 268 269 270 271 271 272 273 273 274 274 274 274 274 274 274 274 274 274 274 274 275 276 276 277 277 278 278 279 280 282 283 284 285 286 287 288 289 288 288 289 290 290 290 289 289 290 290 291 291 292 292 292 291 291 291 291 291 291 291 290 291 291 291 290 290 289 290 292 292 292
257 258 259 260 260 261 262 263 264 264 265 266 266 267 267 268 269 269 270 271 272 273 273 274 274 275 275 276 276 277 278 278 278 278 278 278 279 280 281 281 281 281 282 282 283 284 285 285 286 287 287 287 287 288 288 288 288 287 287 287 287 288 288 289 289 289 289 289 289 290 290 291 291 291 292 292 292 292 292 292 292 293 294 294 293
257 258 259 259 260 261 261 262 263 264 265 266 266 267 268 269 269 270 271 271 272 273 273 274 274 275 276 276 277 278 279 280 280 280 281 281 281 282 282 282 282 282 282 282 282 283 283 284 284 284 284 284 284 285 285 286 286 286 285 285 285 285 286 286 287 287 288 288 289 289 289 290 291 292 292 293 293 293 293 293 294 295 295 295 295
258 259 259 260 260 261 261 262 262 263 264 264 265 266 267 267 268 269 270 271 272 273 273 273 274 274 275 275 276 276 277 277 277 278 278 278 279 279 280 280 280 280 281 281 281 281 281 281 281 281 281 281 281 282 282 283 284 284 284 285 285 285 285 286 287 288 288 289 289 289 289 290 291 291 292 292 292 293 293 293 294 294 295 295 296
259 259 260 261 261 261 262 262 263 263 264 265 265 266 266 267 267 268 269 270 270 271 271 271 272 272 272 273 273 273 273 274 274 275 275 276 276 276 276 277 277 277 278 279 279 279 279 279 279 279 279 279 280 280 281 281 282 283 284 285 286 286 287 287 287 288 288 288 288 289 289 290 290 290 291 291 291 292 293 293 293 294 294 295 296
260 260 261 261 262 263 263 264 265 265 265 266 266 266 267 267 268 269 270 270 271 271 271 271 271 271 272 272 272 272 272 273 273 274 274 275 275 275 275 276 276 276 277 278 278 279 279 279 279 280 280 281 281 282 282 283 283 284 285 285 285 286 287 287 287 287 287 287 287 288 288 289 289 289 290 290 291 291 292 292 293 294 294 295 295
259 260 260 261 262 263 264 264 265 265 266 266 267 267 267 268 268 269 270 271 271 271 271 272 272 273 273 274 274 274 275 275 275 275 275 276 276 276 277 277 278 279 279 280 280 281 281 281 282 282 282 283 283 283 284 284 284 284 284 284 284 284 284 284 284 285 285 285 286 286 287 287 288 288 289 289 289 290 290 291 292 293 293 293 294
259 259 260 261 261 262 263 264 264 265 265 266 267 267 267 268 268 269 269 270 270 271 271 272 273 273 274 274 275 275 276 276 276 277 277 277 278 278 279 279 280 281 281 282 282 283 283 283 284 284 284 284 284 284 284 284 284 284 283 283 282 281 281 280 281 281 282 282 283 284 285 286 286 286 287 287 287 287 288 289 290 290 291 292 292
260 260 261 261 262 263 263 264 264 265 265 266 267 267 268 268 268 269 269 269 269 270 270 271 272 273 273 274 274 275 275 276 276 277 277 278 279 279 280 280 281 281 281 282 283 283 284 284 284 285 284 284 284 283 283 282 282 282 281 280 280 279 278 278 278 278 278 279 280 281 282 283 283 283 284 285 285 285 285 286 287 288 289 290 291
260 260 261 262 262 263 263 264 264 265 265 266 266 267 267 268 268 269 269 270 270 271 271 271 272 272 273 273 274 275 276 276 277 278 278 279 280 280 281 281 282 282 282 282 283 283 284 284 284 284 283 283 282 281 281 280 280 279 279 278 278 277 276 276 275 275 276 276 277 277 278 279 280 281 281 282 283 283 283 283 284 285 286 287 289
261 261 261 262 262 262 263 263 264 264 264 265 265 266 267 268 268 269 270 270 271 272 272 273 273 273 273 274 274 275 275 276 277 278 279 279 280 281 281 282 282 283 283 283 283 283 283 283 283 282 282 281 280 279 279 278 278 277 276 275 275 275 275 275 275 275 275 275 275 275 275 276 276 277 278 279 280 280 281 282 283 284 285 285 285
262 263 263 263 263 263 263 263 264 264 265 265 266 266 267 268 269 269 270 271 272 272 273 273 274 274 275 275 275 275 276 276 277 278 278 279 279 280 281 281 282 282 283 283 283 283 283 282 281 281 280 279 278 278 277 276 275 274 273 273 273 273 274 275 275 274 273 273 274 275 275 273 273 274 275 277 278 279 280 281 282 282 282 281 280
264 264 264 264 264 264 264 265 265 265 266 266 267 268 268 269 269 270 271 271 272 272 273 273 274 274 275 275 276 276 276 276 277 277 278 278 279 280 280 281 281 282 282 282 282 282 282 281 281 280 279 278 278 277 276 275 274 273 273 273 273 273 273 273 273 273 273 274 275 274 273 273 272 272 274 275 277 279 280 281 280 279 277 276 276
266 266 266 266 266 266 266 267 267 267 268 268 269 269 270 270 271 271 272 272 273 273 273 274 274 275 275 276 276 276 277 277 277 277 278 278 279 280 280 281 281 281 281 281 281 281 281 280 280 279 279 278 278 277 276 275 275 274 274 274 274 273 272 271 271 272 274 274 273 272 272 273 273 274 275 276 278 279 279 277 276 274 273 273 273
267 267 267 267 268 268 268 269 269 270 270 270 271 271 272 272 272 273 273 273 274 274 274 275 275 275 276 276 277 277 278 278 279 279 279 280 280 280 281 281 281 281 281 281 281 281 280 280 280 279 279 279 278 277 276 275 275 275 275 276 275 275 273 272 271 272 273 272 271 272 272 273 274 275 277 278 278 276 275 273 272 271 271 271 272
267 267 268 268 269 269 269 270 270 271 271 271 272 272 272 273 273 273 274 274 274 275 275 276 276 276 277 277 278 278 279 279 280 280 280 281 281 281 281 281 281 281 281 281 281 281 280 280 280 279 279 278 277 276 276 275 275 275 274 274 274 274 274 273 273 273 273 273 272 272 272 272 274 276 276 276 273 271 270 269 269 268 269 271 272
267 268 268 269 269 269 270 270 271 271 271 271 272 272 273 273 273 274 274 275 275 276 276 276 277 277 278 278 278 279 279 280 280 281 282 282 282 282 282 282 282 281 281 281 281 281 281 280 280 279 278 277 276 275 275 275 274 273 273 272 272 272 273 273 274 274 273 273 271 271 271 272 273 273 271 269 267 267 266 266 267 268 270 271 272
267 268 268 269 269 270 270 271 271 271 271 272 272 273 273 274 274 275 275 276 276 276 277 277 277 278 278 279 279 280 280 281 282 282 282 283 283 283 282 282 282 282 281 281 281 281 281 281 281 280 279 278 277 276 276 275 274 273 272 271 271 271 271 272 273 273 272 271 270 270 270 270 268 266 264 263 263 264 266 267 269 270 271 270 269
269 269 269 270 270 271 271 271 271 272 272 273 273 274 274 274 275 275 276 276 276 277 277 277 278 279 279 280 280 281 282 282 283 283 283 283 283 282 282 281 281 281 281 280 280 280 281 281 281 280 280 280 279 279 277 276 274 273 272 272 271 272 272 272 272 272 271 271 270 270 269 267 265 264 264 263 263 264 266 268 270 270 269 268 267
269 269 269 270 270 271 271 271 271 272 272 272 273 274 274 274 275 275 276 276 277 277 278 279 279 280 280 281 281 282 282 283 283 283 283 283 283 282 282 281 281 281 281 281 281 281 281 281 281 281 281 281 280 280 278 277 275 274 273 272 272 273 273 273 272 272 271 270 270 269 268 267 266 265 265 264 264 265 266 267 268 268 267 266 264
268 268 269 270 270 271 271 271 272 272 272 273 274 274 274 275 275 276 276 277 278 279 279 280 281 281 282 282 282 282 282 283 283 283 283 283 283 283 283 283 283 283 283 283 283 283 283 283 283 282 282 282 281 281 280 278 277 275 274 273 273 273 273 273 273 272 270 269 268 268 267 267 266 266 265 265 265 265 265 266 266 266 265 264 261
268 268 269 270 271 271 271 272 272 273 273 274 275 275 276 276 276 277 277 278 279 280 281 281 282 283 283 283 283 283 283 284 284 284 284 284 284 284 284 285 285 285 285 286 286 286 286 285 285 284 284 283 283 282 281 280 279 278 277 276 275 274 274 274 274 273 271 270 269 268 267 267 266 266 266 265 265 264 264 264 264 263 262 261 258
268 269 269 270 271 272 272 273 273 274 274 275 276 276 276 277 277 278 278 279 280 280 281 282 283 284 284 284 284 284 284 284 285 285 285 285 285 285 286 287 287 288 288 288 289 288 288 288 287 287 286 286 286 285 284 283 282 280 278 277 277 276 275 274 274 274 273 272 270 269 268 267 266 266 265 265 265 264 263 262 261 260 259 257 256
269 269 270 271 271 272 273 273 274 274 275 275 276 276 277 277 278 279 280 280 281 281 282 283 283 284 284 284 284 284 285 285 286 286 286 287 286 286 287 287 288 289 290 291 292 291 291 291 290 290 289 289 288 287 287 286 284 282 280 279 279 278 277 276 275 274 273 272 270 269 267 266 266 266 265 265 264 263 262 260 259 257 256 255 254
269 270 271 271 272 272 273 273 274 274 274 275 275 276 277 278 279 280 281 281 282 283 283 284 284 284 284 284 284 284 285 286 287 287 288 288 288 288 288 288 289 290 291 293 294 295 294 294 293 292 291 290 290 289 289 289 287 285 282 281 281 280 279 278 277 276 274 272 271 269 268 266 265 264 263 262 261 260 259 257 256 255 254 253 252
Height
10606 10608 10609 10609 10610 10610 10610 10610 10611 10612 10612 10613 10613 10613 10614 10615 10616 10618 10618 10618 10619 10620 10621 10622 10623 10625 10626 10627 10628 10629 10629 10630 10630 10631 10631 10632 10632 10633 10633 10634 10634 10634 10634 10634 10635 10635 10636 10636 10637 10636 10636 10636 10635 10634 10633 10631 10630 10628 10627 10626 10625 10625 10624 10623 10622 10621 10621 10620 10620 10619 10619 10619 10619 10619 10619 10618 10617 10616 10615 10614 10613 10612 10612 10612 10611
10602 10604 10605 10606 10606 10607 10607 10607 10608 10609 10609 10609 10609 10609 10609 10611 10612 10613 10614 10615 10615 10616 10617 10618 10619 10621 10622 10623 10624 10625 10626 10626 10627 10627 10627 10628 10628 10629 10629 10630 10630 10630 10630 10630 10631 10631 10632 10632 10632 10632 10632 10631 10630 10629 10628 10626 10624 10623 10621 10620 10620 10619 10618 10618 10617 10616 10615 10615 10615 10614 10614 10614 10613 10613 10613 10613 10612 10611 10610 10609 10608 10607 10606 10606 10605
10598 10599 10601 10602 10603 10603 10604 10605 10605 10605 10606 10606 10605 10605 10605 10606 10608 10609 10610 10611 10612 10613 10613 10614 10616 10617 10619 10620 10620 10621 10622 10623 10623 10623 10624 10624 10624 10624 10625 10625 10626 10626 10626 10626 10626 10627 10627 10627 10627 10627 10627 10626 10625 10624 10622 10620 10618 10617 10616 10614 10613 10613 10612 10612 10611 10610 10610 10609 10609 10608 10608 10608 10607 10607 10607 10607 10607 10606 10605 10604 10603 10602 10601 10600 10599
10593 10595 10596 10597 10599 10600 10601 10602 10602 10602 10602 10603 10602 10601 10601 10602 10604 10605 10606 10608 10610 10610 10610 10611 10612 10614 10615 10616 10617 10618 10618 10619 10619 10619 10619 10619 10619 10620 10620 10621 10621 10622 10622 10621 10621 10621 10622 10622 10622 10621 10621 10621 10620 10619 10617 10614 10612 10611 10609 10608 10607 10606 10606 10605 10605 10605 10604 10603 10603 10602 10601 10601 10601 10601 10600 10600 10600 10600 10599 10599 10598 10597 10596 10594 10593
10589 10590 10592 10594 10596 10597 10598 10599 10599 10599 10599 10599 10599 10598 10597 10598 10600 10600 10602 10604 10606 10606 10607 10607 10608 10610 10611 10612 10613 10613 10614 10614 10615 10615 10615 10615 10615 10615 10616 10616 10616 10616 10616 10616 10616 10616 10616 10615 10615 10615 10615 10614 10613 10612 10610 10609 10607 10604 10603 10602 10601 10600 10599 10599 10599 10598 10598 10597 10596 10596 10595 10595 10594 10594 10594 10594 10593 10593 10593 10592 10592 10591 10590 10589 10587
10585 10587 10589 10591 10593 10595 10596 10596 10596 10596 10596 10595 10594 10593 10592 10593 10594 10595 10597 10599 10601 10602 10603 10603 10605 10606 10606 10607 10608 10609 10609 10610 10610 10611 10611 10611 10611 10611 10611 10611 10610 10611 10611 10611 10611 10610 10610 10609 10609 10608 10608 10607 10606 10605 10603 10602 10600 10599 10597 10596 10595 10594 10593 10593 10592 10592 10591 10591 10590 10589 10589 10588 10588 10587 10587 10587 10587 10586 10586 10586 10585 10584 10583 10582 10581
10581 10583 10586 10588 10591 10594 10595 10595 10594 10592 10590 10589 10589 10589 10587 10588 10590 10591 10591 10593 10595 10596 10598 10599 10600 10601 10601 10602 10602 10603 10604 10604 10605 10605 10606 10606 10606 10606 10606 10605 10605 10605 10605 10605 10605 10604 10604 10603 10602 10601 10600 10599 10598 10597 10596 10595 10594 10592 10591 10591 10590 10589 10587 10587 10586 10586 10585 10585 10584 10583 10582 10581 10581 10581 10580 10580 10580 10580 10579 10578 10577 10576 10575 10573 10572
10575 10578 10582 10586 10590 10592 10592 10593 10591 10588 10585 10585 10585 10585 10583 10583 10585 10585 10586 10587 10588 10590 10593 10594 10594 10594 10595 10596 10596 10597 10598 10598 10599 10599 10600 10600 10600 10600 10600 10600 10599 10599 10598 10598 10598 10598 10597 10596 10595 10594 10593 10591 10590 10589 10588 10587 10586 10585 10585 10585 10584 10583 10583 10582 10581 10580 10579 10578 10578 10576 10575 10575 10574 10574 10573 10573 10573 10572 10571 10570 10568 10567 10565 10564 10562
10570 10574 10579 10583 10585 10586 10586 10587 10586 10583 10581 10582 10582 10581 10580 10579 10579 10579 10580 10581 10582 10584 10587 10588 10588 10589 10589 10590 10591 10592 10592 10592 10593 10593 10593 10594 10594 10594 10594 10594 10593 10592 10592 10591 10591 10590 10590 10589 10588 10587 10585 10584 10582 10581 10580 10579 10579 10578 10578 10578 10578 10578 10577 10577 10576 10575 10574 10573 10571 10570 10569 10567 10566 10566 10565 10564 10563 10563 10562 10561 10559 10557 10555 10553 10551
10567 10570 10575 10577 10579 10580 10580 10580 10579 10577 10577 10577 10577 10577 10576 10575 10574 10574 10575 10576 10576 10577 10579 10581 10582 10582 10583 10584 10584 10585 10586 10586 10587 10587 10587 10587 10587 10587 10587 10586 10586 10585 10585 10585 10584 10583 10582 10581 10580 10579 10577 10576 10575 10574 10573 10572 10572 10571 10571 10571 10571 10571 10570 10569 10568 10567 10566 10565 10563 10562 10561 10559 10558 10557 10556 10555 10554 10553 10552 10551 10549 10546 10544 10542 10540
10563 10566 10569 10572 10574 10575 10575 10574 10574 10572 10572 10573 10573 10572 10571 10571 10571 10571 10572 10572 10571 10572 10572 10574 10574 10575 10576 10576 10577 10577 10578 10579 10579 10578 10578 10578 10578 10578 10578 10578 10579 10579 10578 10577 10576 10575 10574 10573 10572 10571 10570 10569 10568 10567 10566 10565 10564 10564 10563 10563 10563 10563 10562 10561 10560 10558 10557 10556 10554 10553 10552 10551 10549 10548 10547 10546 10545 10543 10542 10540 10538 10536 10534 10532 10530
10559 10562 10564 10566 10569 10570 10569 10568 10568 10568 10568 10569 10569 10567 10566 10567 10567 10567 10568 10568 10568 10567 10567 10568 10569 10569 10569 10569 10569 10570 10570 10570 10570 10569 10569 10570 10570 10570 10570 10571 10571 10571 10570 10569 10568 10567 10566 10565 10564 10563 10562 10562 10561 10560 10559 10558 10557 10556 10556 10555 10554 10554 10553 10552 10551 10550 10548 10547 10545 10544 10543 10542 10541 10539 10538 10536 10535 10533 10532 10530 10529 10527 10525 10524 10522
10554 10557 10559 10561 10563 10564 10563 10562 10562 10563 10564 10565 10565 10563 10562 10562 10562 10563 10563 10563 10563 10563 10562 10562 10563 10563 10563 10563 10563 10563 10563 10563 10562 10563 10563 10564 10564 10563 10563 10563 10563 10562 10561 10561 10560 10559 10558 10557 10557 10556 10555 10554 10554 10553 10552 10550 10549 10549 10548 10547 10545 10544 10543 10543 10542 10541 10540 10538 10537 10535 10534 10533 10531 10530 10528 10527 10525 10524 10523 10521 10519 10517 10515 10513 10512
10549 10551 10552 10554 10556 10557 10557 10557 10558 10558 10559 10560 10559 10558 10558 10557 10558 10558 10558 10558 10558 10557 10557 10557 10557 10557 10557 10557 10557 10558 10558 10558 10557 10557 10557 10557 10557 10557 10556 10555 10554 10554 10554 10553 10552 10552 10551 10550 10549 10549 10548 10547 10546 10544 10543 10542 10541 10540 10539 10538 10537 10536 10536 10535 10534 10533 10531 10530 10528 10526 10525 10524 10523 10520 10519 10517 10516 10515 10514 10512 10510 10508 10505 10503 10501
10543 10545 10546 10548 10549 10550 10550 10551 10551 10552 10553 10553 10552 10553 10553 10553 10554 10554 10554 10554 10554 10553 10553 10553 10553 10553 10552 10552 10553 10552 10552 10552 10551 10550 10549 10549 10549 10548 10548 10546 10546 10545 10545 10545 10544 10543 10543 10542 10541 10541 10540 10538 10537 10536 10535 10534 10533 10532 10531 10530 10529 10528 10527 10526 10525 10524 10523 10521 10519 10517 10516 10515 10515 10512 10510 10509 10507 10506 10505 10504 10502 10499 10497 10494 10491
10537 10538 10540 10541 10543 10543 10543 10544 10545 10546 10546 10546 10545 10546 10548 10548 10548 10549 10550 10550 10549 10549 10548 10548 10547 10547 10546 10546 10546 10545 10545 10544 10543 10542 10541 10541 10541 10540 10539 10538 10536 10535 10535 10535 10534 10534 10533 10533 10533 10532 10532 10531 10530 10529 10528 10527 10526 10525 10524 10522 10520 10519 10518 10517 10515 10515 10513 10511 10510 10508 10506 10506 10505 10504 10502 10500 10499 10497 10496 10494 10492 10490 10487 10485 10482
10531 10532 10534 10535 10536 10537 10537 10538 10538 10539 10539 10539 10538 10539 10541 10541 10541 10542 10543 10542 10542 10541 10541 10540 10539 10539 10538 10538 10538 10537 10537 10535 10534 10534 10534 10533 10533 10532 10531 10530 10529 10527 10527 10527 10526 10525 10524 10523 10523 10523 10522 10522 10521 10520 10519 10518 10518 10517 10515 10514 10512 10510 10509 10507 10506 10505 10503 10501 10500 10498 10496 10495 10494 10493 10492 10490 10488 10487 10485 10483 10481 10479 10476 10474 10472
10524 10526 10527 10528 10529 10530 10530 10531 10532 10532 10532 10532 10531 10532 10533 10533 10533 10533 10533 10533 10532 10532 10531 10531 10531 10531 10531 10530 10529 10528 10527 10526 10526 10527 10527 10526 10525 10524 10523 10522 10521 10519 10519 10519 10519 10517 10515 10514 10513 10512 10512 10512 10512 10511 10510 10509 10508 10507 10505 10504 10503 10501 10500 10498 10496 10495 10493 10491 10489 10488 10486 10484 10483 10482 10481 10479 10477 10475 10473 10471 10469 10466 10464 10463 10461
10516 10518 10519 10521 10522 10523 10524 10525 10525 10525 10525 10525 10524 10524 10524 10525 10525 10525 10525 10524 10523 10522 10522 10522 10522 10522 10523 10523 10521 10518 10516 10516 10518 10519 10519 10518 10517 10516 10515 10514 10512 10511 10510 10510 10510 10509 10507 10506 10504 10504 10504 10504 10503 10502 10500 10499 10497 10496 10495 10493 10492 10491 10490 10488 10486 10484 10482 10481 10479 10477 10475 10473 10472 10471 10469 10467 10465 10463 10460 10458 10456 10454 10452 10450 10449
10508 10510 10511 10513 10515 10516 10516 10517 10517 10517 10518 10518 10518 10517 10517 10517 10517 10516 10516 10515 10514 10513 10513 10513 10513 10514 10515 10514 10511 10507 10505 10506 10508 10509 10509 10508 10508 10507 10506 10505 10503 10502 10502 10501 10500 10500 10499 10498 10496 10495 10494 10494 10494 10492 10491 10489 10487 10486 10484 10483 10482 10481 10479 10477 10476 10474 10472 10470 10468 10466 10464 10462 10460 10459 10457 10455 10453 10451 10448 10446 10443 10441 10440 10438 10437
10500 10501 10503 10505 10506 10507 10507 10508 10508 10508 10509 10510 10510 10510 10510 10510 10509 10507 10507 10507 10506 10505 10505 10505 10504 10505 10506 10506 10502 10497 10497 10497 10498 10498 10499 10498 10498 10498 10497 10496 10495 10494 10493 10492 10491 10490 10490 10489 10488 10486 10485 10484 10483 10482 10481 10480 10478 10476 10474 10473 10472 10471 10469 10466 10464 10462 10461 10458 10456 10454 10452 10451 10449 10447 10445 10443 10441 10439 10437 10435 10432 10430 10428 10426 10425
10491 10492 10494 10495 10497 10497 10498 10499 10499 10500 10500 10501 10502 10502 10502 10502 10500 10499 10499 10498 10497 10496 10496 10496 10496 10496 10497 10497 10494 10490 10489 10489 10488 10489 10488 10488 10488 10488 10487 10486 10485 10485 10484 10482 10481 10481 10480 10479 10478 10477 10475 10474 10473 10472 10471 10469 10468 10466 10464 10462 10461 10460 10457 10454 10452 10450 10448 10446 10445 10443 10442 10440 10438 10436 10434 10432 10430 10428 10426 10423 10420 10418 10416 10415 10414
10482 10483 10485 10486 10488 10488 10489 10490 10491 10491 10492 10492 10493 10493 10493 10493 10492 10491 10490 10490 10489 10488 10488 10488 10488 10487 10487 10487 10485 10483 10482 10481 10480 10479 10479 10478 10477 10477 10476 10476 10475 10474 10473 10472 10471 10470 10468 10467 10466 10465 10464 10463 10462 10461 10460 10459 10457 10454 10451 10449 10448 10446 10443 10439 10438 10436 10435 10434 10433 10431 10430 10428 10425 10423 10421 10419 10418 10416 10414 10411 10408 10406 10404 10403 10402
10474 10474 10475 10476 10477 10479 10480 10481 10481 10482 10482 10482 10483 10483 10483 10483 10482 10482 10481 10480 10480 10479 10479 10478 10478 10478 10478 10477 10476 10475 10473 10472 10470 10469 10469 10468 10467 10466 10466 10465 10465 10464 10463 10461 10460 10458 10456 10455 10453 10452 10452 10451 10450 10449 10448 10446 10443 10438 10437 10437 10434 10430 10427 10426 10425 10424 10423 10423 10421 10419 10417 10415 10412 10410 10409 10407 10406 10404 10402 10398 10395 10393 10391 10391 10391
10465 10465 10466 10466 10467 10468 10470 10471 10471 10472 10472 10472 10472 10472 10472 10472 10472 10471 10470 10469 10469 10468 10468 10467 10466 10466 10466 10466 10466 10465 10463 10461 10460 10459 10459 10458 10457 10456 10455 10454 10453 10452 10451 10450 10448 10446 10444 10442 10440 10439 10439 10439 10438 10436 10435 10434 10429 10425 10424 10423 10419 10413 10411 10412 10413 10412 10411 10410 10408 10406 10404 10401 10399 10397 10395 10394 10393 10392 10389 10385 10381 10378 10378 10380 10380
10455 10455 10456 10457 10458 10459 10460 10460 10461 10461 10461 10461 10461 10461 10461 10461 10460 10460 10459 10458 10457 10457 10456 10455 10454 10454 10453 10453 10453 10453 10451 10451 10450 10449 10448 10447 10445 10443 10443 10443 10441 10440 10439 10437 10436 10434 10431 10428 10426 10426 10427 10426 10423 10421 10422 10421 10419 10416 10413 10409 10405 10401 10398 10398 10399 10399 10397 10395 10394 10391 10389 10387 10384 10382 10381 10381 10380 10378 10374 10370 10366 10364 10366 10367 10365
10445 10446 10447 10448 10448 10448 10449 10449 10450 10450 10450 10450 10450 10450 10450 10450 10450 10449 10448 10447 10447 10446 10445 10443 10442 10442 10441 10440 10440 10439 10438 10438 10439 10437 10436 10434 10432 10430 10429 10429 10427 10427 10426 10424 10423 10422 10419 10415 10413 10414 10414 10411 10406 10406 10408 10409 10408 10407 10404 10399 10393 10388 10385 10385 10387 10386 10383 10380 10378 10375 10373 10371 10368 10366 10365 10365 10364 10361 10357 10353 10351 10351 10352 10351 10350
10435 10436 10437 10437 10438 10438 10438 10438 10439 10439 10438 10438 10439 10439 10439 10439 10439 10438 10438 10437 10437 10436 10435 10433 10431 10430 10429 10428 10427 10426 10425 10424 10424 10423 10421 10420 10418 10416 10415 10414 10413 10412 10412 10411 10410 10409 10407 10404 10401 10401 10401 10398 10391 10390 10393 10395 10395 10395 10393 10390 10386 10380 10373 10372 10372 10371 10368 10365 10362 10360 10358 10355 10352 10349 10348 10348 10346 10344 10341 10338 10337 10337 10336 10335 10335
10425 10426 10426 10426 10427 10427 10427 10428 10428 10428 10428 10428 10428 10428 10428 10428 10428 10427 10427 10426 10426 10425 10424 10423 10421 10419 10418 10417 10416 10415 10413 10412 10411 10410 10408 10407 10405 10403 10401 10400 10399 10398 10397 10398 10398 10397 10395 10393 10390 10388 10388 10386 10381 10378 10378 10379 10380 10381 10380 10379 10378 10373 10366 10360 10358 10356 10353 10350 10347 10345 10343 10340 10338 10336 10334 10332 10330 10328 10327 10325 10324 10323 10322 10321 10321
10415 10415 10415 10415 10415 10415 10416 10416 10417 10418 10418 10418 10417 10417 10417 10417 10417 10416 10416 10415 10414 10413 10412 10411 10410 10408 10407 10406 10405 10403 10401 10400 10399 10398 10397 10395 10394 10392 10390 10388 10386 10384 10383 10384 10384 10384 10383 10381 10380 10378 10376 10374 10371 10369 10367 10365 10365 10366 10365 10363 10362 10359 10354 10349 10344 10340 10337 10333 10330 10328 10326 10325 10325 10323 10321 10318 10316 10315 10314 10313 10312 10311 10310 10309 10308
10404 10404 10404 10404 10404 10404 10404 10405 10405 10406 10406 10406 10406 10406 10405 10405 10405 10404 10404 10403 10402 10401 10400 10399 10397 10396 10394 10393 10393 10392 10390 10387 10385 10384 10384 10383 10382 10380 10378 10376 10374 10372 10371 10370 10371 10370 10368 10367 10367 10366 10364 10361 10359 10357 10355 10353 10352 10352 10351 10349 10345 10341 10337 10333 10329 10325 10322 10318 10316 10313 10311 10311 10311 10310 10308 10306 10304 10302 10301 10301 10300 10299 10299 10298 10297
10393 10393 10393 10393 10393 10393 10393 10393 10393 10393 10393 10393 10393 10393 10393 10392 10391 10390 10390 10390 10389 10387 10386 10385 10384 10382 10381 10379 10378 10378 10377 10375 10373 10371 10370 10368 10367 10365 10363 10362 10361 10359 10358 10357 10357 10356 10354 10353 10352 10351 10349 10347 10344 10342 10340 10339 10338 10337 10336 10334 10331 10326 10322 10317 10313 10309 10306 10303 10301 10300 10298 10297 10297 10297 10295 10293 10292 10291 10290 10289 10288 10288 10288 10287 10286
10382 10382 10382 10382 10382 10382 10382 10381 10381 10380 10380 10379 10379 10379 10379 10379 10378 10377 10376 10375 10374 10373 10372 10371 10370 10368 10367 10365 10363 10362 10361 10359 10358 10356 10355 10354 10352 10349 10347 10345 10344 10343 10342 10340 10339 10338 10337 10336 10335 10335 10333 10331 10328 10325 10323 10322 10322 10321 10320 10319 10318 10315 10310 10305 10300 10296 10292 10288 10286 10286 10285 10284 10284 10284 10283 10282 10281 10280 10279 10278 10277 10277 10277 10277 10276
10370 10370 10370 10371 10371 10370 10370 10369 10368 10368 10367 10367 10366 10365 10365 10365 10365 10364 10363 10362 10361 10360 10359 10358 10356 10355 10353 10352 10351 10349 10346 10344 10341 10340 10339 10338 10336 10334 10332 10330 10329 10327 10324 10322 10320 10319 10318 10317 10317 10317 10317 10316 10313 10310 10307 10306 10305 10305 10304 10303 10302 10300 10297 10293 10290 10286 10281 10277 10275 10274 10273 10272 10272 10271 10270 10270 10270 10270 10270 10269 10267 10267 10267 10267 10267
10358 10359 10359 10359 10359 10358 10358 10357 10356 10356 10354 10353 10353 10352 10351 10350 10350 10350 10349 10348 10347 10347 10346 10345 10344 10342 10340 10338 10337 10335 10333 10330 10327 10325 10323 10322 10321 10320 10318 10317 10315 10313 10310 10308 10305 10303 10302 10301 10300 10300 10300 10299 10297 10294 10291 10290 10290 10289 10288 10286 10284 10283 10281 10279 10276 10273 10270 10268 10266 10265 10264 10262 10260 10259 10259 10259 10259 10260 10260 10259 10258 10258 10258 10258 10258
10346 10347 10347 10347 10346 10346 10345 10344 10344 10342 10341 10340 10339 10338 10337 10336 10335 10334 10334 10333 10332 10332 10332 10332 10331 10330 10328 10326 10323 10321 10318 10315 10312 10311 10309 10308 10306 10304 10302 10300 10298 10297 10296 10295 10293 10291 10288 10286 10285 10284 10284 10283 10281 10278 10276 10275 10273 10273 10272 10270 10267 10265 10264 10263 10261 10259 10257 10257 10257 10256 10255 10254 10251 10248 10248 10249 10250 10250 10250 10249 10249 10249 10249 10249 10249
10334 10334 10334 10334 10333 10333 10332 10331 10330 10329 10328 10327 10326 10325 10324 10323 10322 10320 10320 10319 10319 10318 10317 10315 10314 10314 10314 10314 10312 10308 10305 10302 10299 10297 10296 10294 10291 10289 10287 10284 10281 10279 10278 10278 10277 10277 10275 10272 10270 10269 10268 10267 10265 10263 10262 10260 10259 10258 10256 10253 10251 10249 10248 10247 10247 10246 10245 10244 10244 10245 10246 10246 10242 10239 10238 10239 10240 10240 10240 10240 10240 10240 10241 10241 10241
10321 10320 10320 10320 10319 10318 10318 10317 10316 10315 10314 10314 10313 10312 10311 10310 10309 10308 10307 10306 10305 10304 10303 10301 10299 10298 10298 10298 10296 10295 10293 10291 10288 10285 10283 10280 10278 10276 10274 10271 10269 10266 10264 10262 10262 10261 10260 10258 10256 10255 10254 10251 10250 10249 10248 10247 10245 10243 10241 10238 10238 10237 10235 10233 10233 10232 10232 10232 10232 10233 10234 10234 10233 10231 10230 10230 10230 10230 10231 10231 10231 10231 10231 10231 10231
10307 10306 10306 10306 10305 10304 10304 10303 10302 10302 10301 10301 10300 10299 10298 10297 10296 10295 10294 10293 10292 10291 10289 10288 10286 10284 10282 10281 10280 10279 10279 10278 10276 10274 10271 10268 10265 10263 10261 10259 10257 10254 10252 10250 10248 10247 10246 10243 10242 10241 10239 10237 10236 10236 10235 10232 10230 10229 10227 10226 10227 10227 10226 10223 10220 10218 10219 10222 10223 10222 10220 10220 10221 10221 10221 10221 10221 10221 10222 10222 10222 10221 10221 10221 10221
10294 10293 10293 10292 10292 10291 10290 10289 10289 10289 10289 10288 10287 10286 10285 10285 10284 10282 10281 10280 10279 10278 10276 10275 10273 10271 10269 10267 10266 10265 10264 10264 10262 10261 10259 10256 10254 10252 10250 10248 10246 10243 10240 10238 10236 10235 10233 10231 10229 10228 10226 10224 10223 10223 10222 10219 10217 10216 10215 10214 10214 10215 10215 10214 10210 10208 10210 10213 10213 10210 10209 10209 10210 10210 10211 10212 10213 10213 10213 10212 10211 10211 10211 10211 10212
10282 10281 10281 10280 10279 10278 10277 10277 10277 10277 10276 10274 10274 10273 10273 10272 10271 10270 10269 10268 10266 10265 10264 10262 10261 10259 10257 10255 10253 10252 10251 10250 10249 10247 10246 10244 10243 10241 10239 10237 10234 10231 10229 10227 10224 10223 10222 10220 10217 10216 10215 10213 10212 10211 10210 10208 10206 10205 10203 10202 10202 10202 10202 10202 10201 10201 10203 10203 10202 10200 10200 10200 10200 10200 10202 10203 10204 10203 10202 10201 10201 10201 10201 10202 10203
10270 10269 10269 10268 10267 10266 10266 10266 10266 10265 10263 10263 10262 10262 10261 10260 10260 10259 10257 10256 10254 10253 10252 10250 10249 10247 10245 10244 10242 10241 10239 10238 10236 10235 10234 10233 10231 10230 10227 10225 10223 10221 10219 10216 10213 10211 10210 10209 10208 10206 10205 10203 10201 10200 10199 10198 10197 10196 10194 10192 10191 10191 10190 10190 10191 10192 10193 10194 10193 10192 10191 10191 10191 10193 10194 10194 10193 10192 10191 10191 10191 10192 10193 10194 10196
10259 10258 10258 10256 10255 10255 10255 10256 10255 10253 10252 10252 10251 10250 10250 10249 10249 10247 10246 10244 10243 10242 10241 10239 10237 10236 10234 10233 10232 10230 10229 10227 10226 10225 10223 10221 10220 10218 10216 10214 10213 10211 10209 10206 10203 10201 10199 10199 10198 10196 10194 10193 10191 10190 10190 10189 10188 10187 10184 10183 10182 10182 10181 10181 10182 10183 10184 10184 10183 10183 10182 10183 10184 10185 10185 10184 10183 10182 10181 10182 10182 10184 10186 10188 10189
10248 10248 10247 10245 10245 10245 10245 10245 10243 10242 10242 10241 10240 10240 10240 10239 10238 10237 10235 10234 10232 10231 10230 10229 10227 10226 10224 10223 10221 10220 10219 10217 10216 10215 10213 10211 10210 10208 10206 10204 10202 10202 10200 10197 10194 10192 10190 10189 10188 10186 10184 10183 10182 10182 10181 10181 10180 10178 10175 10174 10174 10173 10172 10173 10173 10174 10175 10174 10174 10173 10174 10175 10175 10174 10174 10174 10173 10173 10173 10174 10175 10177 10180 10181 10182
10238 10237 10236 10235 10235 10235 10235 10234 10233 10232 10232 10231 10231 10230 10230 10229 10229 10227 10225 10224 10223 10221 10220 10219 10218 10216 10215 10214 10212 10211 10209 10208 10206 10205 10204 10202 10200 10199 10197 10195 10194 10193 10191 10189 10186 10184 10182 10180 10179 10177 10175 10174 10173 10173 10172 10172 10170 10169 10167 10166 10165 10164 10165 10166 10166 10166 10166 10166 10165 10165 10165 10166 10165 10165 10165 10166 10165 10166 10166 10167 10169 10171 10173 10174 10175
10228 10227 10226 10225 10226 10226 10225 10224 10224 10223 10223 10222 10222 10222 10221 10221 10220 10218 10217 10215 10214 10212 10211 10210 10209 10207 10206 10205 10203 10202 10200 10199 10198 10196 10195 10193 10191 10190 10188 10186 10185 10184 10183 10180 10178 10176 10175 10173 10171 10169 10168 10166 10165 10164 10164 10163 10162 10161 10160 10159 10158 10157 10157 10158 10158 10158 10158 10158 10157 10157 10157 10157 10157 10158 10158 10158 10159 10160 10161 10162 10163 10164 10166 10168 10169
10219 10218 10217 10217 10217 10217 10216 10216 10215 10215 10214 10214 10214 10213 10213 10212 10211 10210 10209 10207 10206 10204 10203 10201 10200 10199 10198 10196 10195 10193 10192 10191 10190 10188 10186 10185 10183 10182 10180 10178 10177 10176 10175 10173 10171 10169 10167 10165 10163 10162 10161 10159 10157 10156 10156 10155 10154 10153 10153 10152 10151 10151 10150 10150 10150 10150 10150 10150 10150 10150 10150 10150 10150 10151 10151 10152 10153 10154 10155 10156 10157 10158 10160 10162 10163
10211 10210 10209 10209 10209 10209 10208 10207 10207 10206 10206 10206 10205 10205 10204 10203 10203 10202 10201 10199 10198 10196 10195 10193 10192 10191 10189 10188 10186 10185 10184 10183 10181 10180 10179 10177 10176 10174 10173 10171 10169 10168 10167 10165 10164 10162 10160 10158 10157 10155 10154 10152 10151 10150 10149 10148 10147 10146 10145 10145 10145 10144 10144 10143 10143 10143 10143 10143 10143 10143 10143 10143 10144 10144 10145 10146 10147 10148 10149 10150 10151 10153 10154 10155 10157
10203 10202 10202 10202 10202 10201 10200 10200 10199 10199 10198 10198 10197 10196 10196 10195 10194 10193 10193 10192 10190 10189 10188 10186 10185 10183 10181 10180 10178 10177 10176 10175 10174 10172 10171 10170 10169 10168 10166 10164 10162 10161 10160 10158 10157 10155 10154 10152 10151 10149 10148 10146 10145 10144 10143 10142 10141 10140 10139 10138 10138 10138 10138 10137 10137 10137 10137 10137 10137 10137 10137 10137 10138 10138 10139 10140 10141 10143 10144 10145 10146 10147 10148 10149 10150
10196 10195 10195 10195 10194 10194 10193 10192 10192 10192 10191 10190 10189 10189 10188 10187 10186 10186 10185 10184 10183 10182 10181 10180 10178 10176 10174 10173 10171 10170 10169 10167 10166 10165 10164 10163 10162 10161 10160 10158 10156 10154 10153 10151 10150 10149 10147 10146 10145 10143 10142 10141 10139 10138 10137 10136 10135 10134 10134 10133 10132 10132 10132 10132 10131 10131 10131 10131 10131 10131 10132 10132 10132 10133 10134 10135 10136 10137 10138 10139 10140 10141 10142 10143 10145
10188 10188 10188 10188 10187 10186 10186 10185 10185 10185 10184 10183 10182 10182 10181 10180 10179 10178 10177 10176 10175 10174 10173 10172 10171 10170 10168 10167 10165 10164 10162 10161 10160 10159 10157 10156 10155 10154 10153 10152 10150 10149 10147 10146 10144 10142 10141 10140 10139 10138 10137 10135 10134 10133 10132 10131 10130 10129 10129 10128 10127 10127 10126 10126 10126 10126 10126 10126 10126 10126 10127 10127 10128 10128 10129 10130 10131 10132 10133 10134 10135 10136 10137 10138 10140